W0QQ Weather Reports


Display with metric or nautical units.
time (UTC)temp
F
wind
direction
speed
MPH
gust
MPH
rain 1hr
in
rain 24hr
in
rain mn
in
humidity
%
barometer
mb
20260904190056 98 11 4.0 16.0 0.00 0.00 0.00 48 1011.7
20260904184553 98 11 4.0 15.0 0.00 0.00 0.00 49 1011.9
20260904183058 97 11 3.0 15.0 0.00 0.00 0.00 50 1012.0
20260904181545 96 209 4.0 14.0 0.00 0.00 0.00 51 1012.1
20260904180055 96 11 4.0 20.0 0.00 0.00 0.00 52 1012.2
20260904174640 95 11 7.0 22.0 0.00 0.00 0.00 51 1012.4
20260904173044 95 11 4.0 17.0 0.00 0.00 0.00 55 1012.4
20260904171542 94 11 7.0 16.0 0.00 0.00 0.00 55 1012.6
20260904170028 93 11 4.0 15.0 0.00 0.00 0.00 56 1012.8
20260904164524 92 11 9.0 20.0 0.00 0.00 0.00 55 1012.9
20260904163022 91 11 7.0 22.0 0.00 0.00 0.00 58 1013.0
20260904161517 91 205 4.0 16.0 0.00 0.00 0.00 61 1013.0
20260904160012 90 11 8.0 17.0 0.00 0.00 0.00 61 1012.9
20260904154510 89 11 4.0 10.0 0.00 0.00 0.00 62 1013.0
20260904153003 88 11 1.0 14.0 0.00 0.00 0.00 64 1013.1
20260904151600 87 11 4.0 15.0 0.00 0.00 0.00 65 1013.0
20260904150056 86 11 3.0 23.0 0.00 0.00 0.00 65 1012.8
20260904144553 85 11 3.0 14.0 0.00 0.00 0.00 69 1013.0
20260904143045 83 11 1.0 12.0 0.00 0.00 0.00 72 1013.2
20260904141541 82 202 4.0 11.0 0.00 0.00 0.00 75 1013.1
20260904140037 81 11 4.0 11.0 0.00 0.00 0.00 76 1013.0
20260904134532 80 209 1.0 11.0 0.00 0.00 0.00 77 1013.2
20260904133032 79 11 3.0 15.0 0.00 0.00 0.00 78 1013.1
20260904131528 78 11 5.0 11.0 0.00 0.00 0.00 78 1013.0
20260904130027 78 11 3.0 15.0 0.00 0.00 0.00 79 1012.8
20260904124524 77 11 3.0 10.0 0.00 0.00 0.00 80 1012.6
20260904123022 77 11 2.0 10.0 0.00 0.00 0.00 81 1012.6
20260904121519 76 11 2.0 10.0 0.00 0.00 0.00 81 1012.2
20260904120019 76 11 1.0 9.0 0.00 0.00 0.00 81 1011.9
20260904114525 76 11 1.0 10.0 0.00 0.00 0.00 81 1011.9
20260904113027 77 11 2.0 6.0 0.00 0.00 0.00 80 1011.7
20260904111514 77 11 2.0 6.0 0.00 0.00 0.00 80 1011.6
20260904110012 77 197 1.0 9.0 0.00 0.00 0.00 79 1011.7
20260904104514 77 11 2.0 9.0 0.00 0.00 0.00 79 1011.7
20260904103011 77 207 3.0 11.0 0.00 0.00 0.00 79 1011.4
20260904101510 77 11 3.0 11.0 0.00 0.00 0.00 80 1011.4
20260904100008 77 11 2.0 11.0 0.00 0.00 0.00 79 1011.3
20260904094507 77 11 2.0 8.0 0.00 0.00 0.00 79 1011.3
20260904093004 77 11 2.0 6.0 0.00 0.00 0.00 79 1011.1
20260904091503 77 11 1.0 5.0 0.00 0.00 0.00 78 1010.9
20260904090004 77 11 1.0 6.0 0.00 0.00 0.00 78 1010.8
20260904084501 77 11 1.0 5.0 0.00 0.00 0.00 77 1010.7
20260904083100 78 11 1.0 5.0 0.00 0.00 0.00 77 1010.7
20260904081633 78 218 1.0 5.0 0.00 0.00 0.00 76 1010.6
20260904080056 78 11 2.0 6.0 0.00 0.00 0.00 75 1010.5
20260904074608 78 200 2.0 5.0 0.00 0.00 0.00 75 1010.4
20260904073103 79 203 0.0 3.0 0.00 0.00 0.00 74 1010.5
20260904071549 79 203 0.0 3.0 0.00 0.00 0.00 73 1010.6
20260904070101 80 11 0.0 3.0 0.00 0.00 0.00 71 1010.7
20260904064542 81 209 0.0 3.0 0.00 0.00 0.00 70 1010.8
20260904063040 82 11 0.0 4.0 0.00 0.00 0.00 68 1010.7
20260904061536 83 11 1.0 7.0 0.00 0.00 0.00 67 1010.6
20260904060034 83 11 3.0 9.0 0.00 0.00 0.00 66 1010.7
20260904054530 84 222 4.0 11.0 0.00 0.00 0.00 64 1010.5
20260904053036 84 11 3.0 10.0 0.00 0.00 0.00 64 1010.5
20260904051535 84 11 2.0 11.0 0.00 0.00 0.00 63 1010.3
20260904050033 84 199 3.0 11.0 0.00 0.00 0.00 63 1010.3
20260904044525 84 11 1.0 6.0 0.00 0.00 0.00 63 1010.4
20260904043024 84 11 1.0 5.0 0.00 0.00 0.00 63 1010.2
20260904041525 84 11 1.0 5.0 0.00 0.00 0.00 63 1010.2
20260904040022 85 11 0.0 4.0 0.00 0.00 0.00 62 1009.9
20260904034523 85 11 0.0 4.0 0.00 0.00 0.00 62 1010.0
20260904033021 85 11 1.0 5.0 0.00 0.00 0.00 62 1009.9
20260904031522 85 11 2.0 8.0 0.00 0.00 0.00 62 1009.9
20260904030020 85 182 1.0 5.0 0.00 0.00 0.00 62 1010.0
20260904024521 85 11 0.0 4.0 0.00 0.00 0.00 62 1010.0
20260904023026 85 11 0.0 4.0 0.00 0.00 0.00 61 1009.8
20260904021533 86 170 0.0 4.0 0.00 0.00 0.00 60 1009.8
20260904020019 86 11 0.0 3.0 0.00 0.00 0.00 60 1009.5
20260904014518 87 149 0.0 5.0 0.00 0.00 0.00 59 1009.1
20260904013017 88 11 0.0 4.0 0.00 0.00 0.00 58 1008.9
20260904011524 89 11 0.0 3.0 0.00 0.00 0.00 57 1008.7
20260904010017 90 11 0.0 2.0 0.00 0.00 0.00 55 1008.7
20260904004516 91 11 1.0 4.0 0.00 0.00 0.00 53 1008.7
20260904003015 92 183 1.0 4.0 0.00 0.00 0.00 51 1008.7
20260904001515 93 11 1.0 5.0 0.00 0.00 0.00 50 1008.6
20260904000039 94 205 2.0 11.0 0.00 0.00 0.00 49 1008.6
20260903234514 94 11 2.0 9.0 0.00 0.00 0.00 47 1008.4
20260903233013 95 11 2.0 13.0 0.00 0.00 0.00 46 1008.4
20260903231512 95 11 4.0 11.0 0.00 0.00 0.00 46 1008.5
20260903230020 96 11 3.0 11.0 0.00 0.00 0.00 46 1008.5
20260903224609 96 182 2.0 11.0 0.00 0.00 0.00 45 1008.5
20260903223009 96 195 4.0 14.0 0.00 0.00 0.00 45 1008.5
20260903221509 96 11 6.0 21.0 0.00 0.00 0.00 45 1008.5
20260903220011 97 110 4.0 13.0 0.00 0.00 0.00 45 1008.4
20260903214507 97 197 4.0 14.0 0.00 0.00 0.00 45 1008.6
20260903213105 98 11 6.0 13.0 0.00 0.00 0.00 44 1008.9
20260903211503 99 11 7.0 14.0 0.00 0.00 0.00 43 1009.1
20260903210002 99 11 7.0 13.0 0.00 0.00 0.00 44 1009.3
20260903204603 99 11 3.0 23.0 0.00 0.00 0.00 44 1009.4
20260903203102 99 258 6.0 17.0 0.00 0.00 0.00 45 1009.5
20260903201558 99 190 3.0 13.0 0.00 0.00 0.00 46 1009.6
20260903200054 98 11 6.0 14.0 0.00 0.00 0.00 46 1009.8
20260903194556 99 11 4.0 17.0 0.00 0.00 0.00 45 1009.8
20260903193054 98 11 7.0 21.0 0.00 0.00 0.00 46 1010.0
20260903191549 98 11 4.0 16.0 0.00 0.00 0.00 48 1010.1